OE-11373 Weather Reports


time (UTC)temp
C
wind
direction
speed
KPH
gust
KPH
rain 1hr
cm
rain 24hr
cm
rain mn
cm
humidity
%
barometer
mb
20260903073513 15 274 14.5 20.9 0.00 0.00 0.00 68 857.1
20260903072513 15 262 14.5 22.5 0.00 0.00 0.00 68 857.0
20260903071127 15 260 12.9 24.1 0.00 0.00 0.00 68 856.9
20260903070514 14 267 12.9 19.3 0.00 0.00 0.00 70 856.9
20260903065514 14 266 14.5 22.5 0.00 0.00 0.00 70 856.8
20260903064126 14 270 16.1 24.1 0.00 0.00 0.00 71 856.8
20260903063513 14 270 16.1 27.4 0.00 0.00 0.00 70 856.8
20260903062514 14 262 14.5 24.1 0.00 0.00 0.00 71 856.8
20260903061127 14 267 16.1 24.1 0.00 0.00 0.00 71 856.6
20260903060514 14 273 17.7 25.7 0.00 0.00 0.00 71 856.6
20260903055513 13 274 19.3 27.4 0.00 0.00 0.00 71 856.5
20260903054126 13 271 19.3 27.4 0.00 0.00 0.00 72 856.5
20260903053514 13 268 20.9 27.4 0.00 0.00 0.00 71 856.3
20260903052514 13 265 20.9 30.6 0.00 0.00 0.00 72 856.2
20260903051127 13 267 20.9 27.4 0.00 0.00 0.00 72 856.1
20260903050513 13 272 20.9 32.2 0.00 0.00 0.00 72 856.1
20260903045514 13 271 20.9 30.6 0.00 0.00 0.00 72 856.1
20260903044126 13 270 20.9 27.4 0.00 0.00 0.00 72 856.1
20260903043513 13 272 20.9 30.6 0.00 0.00 0.00 72 856.0
20260903042514 13 271 20.9 27.4 0.00 0.00 0.00 72 856.0
20260903041126 13 268 20.9 25.7 0.00 0.00 0.00 72 856.1
20260903040514 13 270 20.9 27.4 0.00 0.00 0.00 72 856.0
20260903035514 13 273 22.5 30.6 0.00 0.00 0.00 72 856.0
20260903034513 13 276 22.5 32.2 0.00 0.00 0.00 73 856.0
20260903033514 13 272 22.5 30.6 0.00 0.00 0.00 74 856.0
20260903032514 13 271 22.5 30.6 0.00 0.00 0.00 74 856.0
20260903031127 13 269 22.5 29.0 0.00 0.00 0.00 73 856.0
20260903030514 14 271 24.1 30.6 0.00 0.00 0.00 72 856.0
20260903025514 14 272 24.1 35.4 0.00 0.00 0.00 72 856.0
20260903024514 14 273 24.1 35.4 0.00 0.00 0.00 70 856.0
20260903023514 15 270 27.4 38.6 0.00 0.00 0.00 70 856.0
20260903022514 15 272 30.6 43.5 0.00 0.00 0.00 68 856.0
20260903021126 15 270 27.4 41.8 0.00 0.00 0.00 67 855.9
20260903020514 15 268 25.7 37.0 0.00 0.00 0.00 64 855.9
20260903015514 15 262 24.1 32.2 0.00 0.00 0.00 63 856.1
20260903014126 15 264 24.1 35.4 0.00 0.00 0.00 61 856.1
20260903013513 16 260 24.1 37.0 0.00 0.00 0.00 59 856.1
20260903012513 16 255 20.9 32.2 0.00 0.00 0.00 57 856.2
20260903011127 16 255 22.5 32.2 0.00 0.00 0.00 57 856.2
20260903010514 16 249 20.9 32.2 0.00 0.00 0.00 56 856.2
20260903005514 16 248 20.9 30.6 0.00 0.00 0.00 56 856.2
20260903004127 16 248 20.9 29.0 0.00 0.00 0.00 57 856.3
20260903003514 16 235 20.9 27.4 0.00 0.00 0.00 56 856.2
20260903002514 16 230 19.3 29.0 0.00 0.00 0.00 56 856.2
20260903001526 16 231 20.9 29.0 0.00 0.00 0.00 56 856.2
20260903000513 16 232 20.9 30.6 0.00 0.00 0.00 57 856.1
20260902235513 16 238 22.5 30.6 0.00 0.00 0.00 59 856.2
20260902234127 16 242 20.9 29.0 0.00 0.00 0.00 57 856.3
20260902233513 16 240 20.9 30.6 0.00 0.00 0.00 56 856.3
20260902232513 16 248 22.5 30.6 0.00 0.00 0.00 59 856.4
20260902231514 16 253 22.5 29.0 0.00 0.00 0.00 61 856.4
20260902230513 16 249 22.5 33.8 0.00 0.00 0.00 61 856.4
20260902225514 16 239 19.3 25.7 0.00 0.00 0.00 68 856.4
20260902224127 16 233 16.1 22.5 0.00 0.00 0.00 67 856.5
20260902223514 16 223 14.5 17.7 0.00 0.00 0.00 64 856.4
20260902222514 16 220 12.9 16.1 0.00 0.00 0.00 62 856.5
20260902221127 16 219 11.3 14.5 0.00 0.00 0.00 62 856.5
20260902220513 16 219 9.7 12.9 0.00 0.00 0.00 61 856.5
20260902215514 17 213 9.7 11.3 0.00 0.00 0.00 61 856.4
20260902214127 17 205 8.0 9.7 0.00 0.00 0.00 61 856.4
20260902213513 17 215 6.4 8.0 0.00 0.00 0.00 61 856.3
20260902211127 17 210 4.8 4.8 0.00 0.00 0.00 60 856.4
20260902210514 17 194 4.8 4.8 0.00 0.00 0.00 60 856.4
20260902205514 17 177 4.8 4.8 0.00 0.00 0.00 61 856.4
20260902204128 17 159 3.2 4.8 0.00 0.00 0.00 60 856.4
20260902203513 17 159 3.2 4.8 0.00 0.00 0.00 60 856.4
20260902202514 17 134 3.2 3.2 0.00 0.00 0.00 60 856.3
20260902201127 17 126 3.2 4.8 0.00 0.00 0.00 58 856.4
20260902200514 17 119 4.8 6.4 0.00 0.00 0.00 58 856.3
20260902195514 17 116 3.2 6.4 0.00 0.00 0.00 59 856.3
20260902194127 16 84 1.6 4.8 0.00 0.00 0.00 58 856.4
20260902193514 17 90 1.6 6.4 0.00 0.00 0.00 57 856.4
20260902192513 17 63 3.2 4.8 0.00 0.00 0.00 56 856.4
20260902191127 17 49 1.6 3.2 0.00 0.00 0.00 57 856.4
20260902190513 17 51 3.2 3.2 0.00 0.00 0.00 58 856.4
20260902185514 17 65 1.6 3.2 0.00 0.00 0.00 58 856.3
20260902184127 17 38 3.2 4.8 0.00 0.00 0.00 59 856.1
20260902183514 17 17 3.2 4.8 0.00 0.00 0.00 60 856.1
20260902182514 17 5 4.8 8.0 0.00 0.00 0.00 60 855.9
20260902181127 17 359 6.4 11.3 0.00 0.00 0.00 61 855.8
20260902180514 17 359 8.0 11.3 0.00 0.00 0.00 61 855.8
20260902175514 17 359 8.0 11.3 0.00 0.00 0.00 62 855.7
20260902174127 17 350 11.3 16.1 0.00 0.00 0.00 63 855.7
20260902173513 16 329 11.3 16.1 0.00 0.00 0.00 62 855.6
20260902172514 17 318 9.7 16.1 0.00 0.00 0.00 61 855.6
20260902171127 17 313 11.3 20.9 0.00 0.00 0.00 62 855.6
20260902170514 17 313 11.3 17.7 0.00 0.00 0.00 61 855.5
20260902165514 17 304 11.3 17.7 0.00 0.00 0.00 59 855.7
20260902164127 17 290 12.9 17.7 0.00 0.00 0.00 58 855.7
20260902163514 17 296 12.9 19.3 0.00 0.00 0.00 58 855.6
20260902162514 18 307 17.7 25.7 0.00 0.00 0.00 57 855.6
20260902161127 18 292 16.1 22.5 0.00 0.00 0.00 57 855.6
20260902160513 18 304 17.7 24.1 0.00 0.00 0.00 57 855.8
20260902155514 18 302 17.7 25.7 0.00 0.00 0.00 55 855.8
20260902154127 18 304 16.1 25.7 0.00 0.00 0.00 58 855.8
20260902153514 18 292 14.5 20.9 0.00 0.00 0.00 57 855.8
20260902152513 18 302 12.9 24.1 0.00 0.00 0.00 58 855.9
20260902151127 18 305 14.5 20.9 0.00 0.00 0.00 58 855.9
20260902150514 18 309 11.3 22.5 0.00 0.00 0.00 57 855.9
20260902145514 18 310 11.3 24.1 0.00 0.00 0.00 58 856.0
20260902144127 18 295 11.3 19.3 0.00 0.00 0.00 58 855.9
20260902143513 18 297 12.9 20.9 0.00 0.00 0.00 57 856.2
20260902142514 18 309 11.3 19.3 0.00 0.00 0.00 58 856.2
20260902141127 18 308 16.1 25.7 0.00 0.00 0.00 60 856.2
20260902140514 17 326 16.1 24.1 0.00 0.00 0.00 58 856.1
20260902135514 17 313 16.1 24.1 0.00 0.00 0.00 58 856.1
20260902134126 18 318 14.5 24.1 0.00 0.00 0.00 58 856.1
20260902133514 17 320 16.1 24.1 0.00 0.00 0.00 59 855.9
20260902132514 17 323 17.7 27.4 0.00 0.00 0.00 59 856.1
20260902131127 17 317 16.1 24.1 0.00 0.00 0.00 58 856.2
20260902130514 17 311 9.7 19.3 0.00 0.00 0.00 58 856.2
20260902125514 18 323 8.0 20.9 0.00 0.00 0.00 57 856.3
20260902124126 18 326 6.4 14.5 0.00 0.00 0.00 55 856.4
20260902123514 17 328 14.5 27.4 0.00 0.00 0.00 57 856.3
20260902122514 17 319 12.9 20.9 0.00 0.00 0.00 56 856.4
20260902121127 18 309 9.7 16.1 0.00 0.00 0.00 56 856.4
20260902120513 18 309 8.0 17.7 0.00 0.00 0.00 56 856.4
20260902115513 18 309 11.3 17.7 0.00 0.00 0.00 52 856.5
20260902114127 18 311 11.3 17.7 0.00 0.00 0.00 54 856.5
20260902113514 17 331 9.7 17.7 0.00 0.00 0.00 56 856.6
20260902112514 18 325 9.7 20.9 0.00 0.00 0.00 51 856.6
20260902111127 18 302 6.4 17.7 0.00 0.00 0.00 54 856.6
20260902110514 18 353 4.8 11.3 0.00 0.00 0.00 56 856.7
20260902105513 18 312 6.4 12.9 0.00 0.00 0.00 55 856.7
20260902104127 18 341 4.8 9.7 0.00 0.00 0.00 57 856.8
20260902103514 17 346 6.4 9.7 0.00 0.00 0.00 60 856.8
20260902102513 17 321 4.8 11.3 0.00 0.00 0.00 57 856.8
20260902101127 18 92 1.6 9.7 0.00 0.00 0.00 61 857.0
20260902100514 18 90 0.0 9.7 0.00 0.00 0.00 59 857.0
20260902095514 18 348 1.6 8.0 0.00 0.00 0.00 62 857.0
20260902094127 18 68 1.6 9.7 0.00 0.00 0.00 58 857.0
20260902093514 18 2 3.2 8.0 0.00 0.00 0.00 62 856.9
20260902092513 17 39 3.2 9.7 0.00 0.00 0.00 62 856.8
20260902091126 17 12 1.6 8.0 0.00 0.00 0.00 59 856.9
20260902090514 17 28 3.2 12.9 0.00 0.00 0.00 62 856.9
20260902084126 17 18 3.2 8.0 0.00 0.00 0.00 63 856.7
20260902083514 16 11 3.2 9.7 0.00 0.00 0.00 62 856.6
20260902082514 16 4 3.2 8.0 0.00 0.00 0.00 65 856.6
20260902081126 16 2 1.6 8.0 0.00 0.00 0.00 64 856.6
20260902080513 16 20 1.6 8.0 0.00 0.00 0.00 64 856.6
20260902075514 17 98 3.2 11.3 0.00 0.00 0.00 64 856.5
20260902074127 16 78 3.2 9.7 0.00 0.00 0.00 65 856.4